Meteo pe oră la Bolshie Peksely

Astăzi, 8 Mai, Sâmbătă

Timp Temperatura Precipitaţii Vânt Presiune Umiditate
00:00 +6°C° 0 mm 2 m/s 749 mmHg 67%
01:00 +6°C° 0 mm 2 m/s 749 mmHg 70%
02:00 +5°C° 0 mm 2 m/s 749 mmHg 74%
03:00 +4°C° 0 mm 3 m/s 749 mmHg 77%
04:00 +5°C° 0 mm 3 m/s 749 mmHg 78%
05:00 +5°C° 0 mm 3 m/s 749 mmHg 80%
06:00 +7°C° 0 mm 3 m/s 748 mmHg 81%
07:00 +7°C° 0 mm 4 m/s 748 mmHg 75%
08:00 +9°C° 0 mm 5 m/s 748 mmHg 69%
09:00 +12°C° 0 mm 5 m/s 748 mmHg 63%
10:00 +11°C° 0 mm 6 m/s 747 mmHg 60%
11:00 +13°C° 0 mm 6 m/s 747 mmHg 58%
12:00 +13°C° 0 mm 6 m/s 746 mmHg 55%
13:00 +14°C° 0 mm 6 m/s 746 mmHg 54%
14:00 +14°C° 0 mm 6 m/s 745 mmHg 54%
15:00 +15°C° 0 mm 7 m/s 744 mmHg 54%
16:00 +14°C° 0.1 mm 7 m/s 744 mmHg 59%
17:00 +12°C° 0.1 mm 7 m/s 743 mmHg 63%
18:00 +11°C° 0.1 mm 7 m/s 742 mmHg 68%
19:00 +11°C° 0.6 mm 7 m/s 742 mmHg 75%
20:00 +11°C° 0.6 mm 7 m/s 741 mmHg 81%
21:00 +10°C° 0.6 mm 7 m/s 741 mmHg 88%
22:00 +10°C° 0.3 mm 7 m/s 740 mmHg 90%
23:00 +10°C° 0.3 mm 6 m/s 740 mmHg 91%

Mâine, 9 Mai, Duminică

Timp Temperatura Precipitaţii Vânt Presiune Umiditate
00:00 +11°C° 0.3 mm 6 m/s 740 mmHg 93%
01:00 +10°C° 0.1 mm 5 m/s 740 mmHg 93%
02:00 +9°C° 0.1 mm 5 m/s 740 mmHg 93%
03:00 +8°C° 0.1 mm 5 m/s 741 mmHg 93%
04:00 +8°C° 0 mm 4 m/s 741 mmHg 93%
05:00 +8°C° 0 mm 4 m/s 741 mmHg 92%
06:00 +8°C° 0 mm 4 m/s 741 mmHg 92%
07:00 +7°C° 0.1 mm 4 m/s 742 mmHg 92%
08:00 +6°C° 0.1 mm 5 m/s 743 mmHg 91%
09:00 +6°C° 0.1 mm 5 m/s 743 mmHg 91%
10:00 +5°C° 0 mm 5 m/s 744 mmHg 92%
11:00 +3°C° 0 mm 5 m/s 745 mmHg 93%
12:00 +3°C° 0 mm 5 m/s 746 mmHg 95%
13:00 +3°C° 0 mm 5 m/s 747 mmHg 90%
14:00 +5°C° 0 mm 5 m/s 747 mmHg 85%
15:00 +6°C° 0 mm 5 m/s 748 mmHg 81%
16:00 +6°C° 0 mm 4 m/s 749 mmHg 79%
17:00 +6°C° 0 mm 4 m/s 749 mmHg 78%
18:00 +6°C° 0 mm 4 m/s 750 mmHg 77%
19:00 +5°C° 0 mm 3 m/s 751 mmHg 80%
20:00 +4°C° 0 mm 3 m/s 751 mmHg 84%
21:00 +5°C° 0 mm 2 m/s 752 mmHg 87%
22:00 +4°C° 0 mm 2 m/s 752 mmHg 88%
23:00 +3°C° 0 mm 3 m/s 753 mmHg 89%

Poimâine, 10 Mai, Luni

Timp Temperatura Precipitaţii Vânt Presiune Umiditate
00:00 +3°C° 0 mm 3 m/s 753 mmHg 90%
01:00 +2°C° 0 mm 3 m/s 754 mmHg 90%
02:00 +2°C° 0 mm 3 m/s 754 mmHg 91%
03:00 +1°C° 0 mm 3 m/s 755 mmHg 91%
04:00 +2°C° 0 mm 3 m/s 755 mmHg 88%
05:00 +2°C° 0 mm 3 m/s 756 mmHg 86%
06:00 +3°C° 0 mm 3 m/s 756 mmHg 83%
07:00 +5°C° 0 mm 4 m/s 757 mmHg 73%
08:00 +7°C° 0 mm 4 m/s 757 mmHg 64%
09:00 +9°C° 0 mm 5 m/s 758 mmHg 54%
10:00 +10°C° 0 mm 5 m/s 758 mmHg 50%
11:00 +12°C° 0 mm 5 m/s 758 mmHg 46%
12:00 +13°C° 0 mm 5 m/s 758 mmHg 42%
13:00 +13°C° 0 mm 5 m/s 758 mmHg 42%
14:00 +14°C° 0 mm 5 m/s 757 mmHg 41%
15:00 +14°C° 0 mm 5 m/s 757 mmHg 41%
16:00 +14°C° 0 mm 5 m/s 758 mmHg 45%
17:00 +13°C° 0 mm 4 m/s 758 mmHg 50%
18:00 +13°C° 0 mm 4 m/s 758 mmHg 54%
19:00 +11°C° 0 mm 4 m/s 758 mmHg 60%
20:00 +9°C° 0 mm 3 m/s 758 mmHg 65%
21:00 +7°C° 0 mm 3 m/s 758 mmHg 71%
22:00 +5°C° 0 mm 3 m/s 758 mmHg 71%
23:00 +5°C° 0 mm 3 m/s 759 mmHg 71%

11 Mai, Marţi

Timp Temperatura Precipitaţii Vânt Presiune Umiditate
00:00 +4°C° 0 mm 3 m/s 759 mmHg 71%
01:00 +4°C° 0 mm 3 m/s 759 mmHg 72%
02:00 +3°C° 0 mm 3 m/s 759 mmHg 73%
03:00 +3°C° 0 mm 3 m/s 759 mmHg 74%
04:00 +4°C° 0 mm 3 m/s 759 mmHg 75%
05:00 +4°C° 0 mm 4 m/s 759 mmHg 75%
06:00 +5°C° 0 mm 4 m/s 759 mmHg 76%
07:00 +7°C° 0 mm 5 m/s 759 mmHg 69%
08:00 +9°C° 0 mm 5 m/s 759 mmHg 62%
09:00 +11°C° 0 mm 6 m/s 759 mmHg 56%
10:00 +13°C° 0 mm 6 m/s 759 mmHg 52%
11:00 +15°C° 0 mm 6 m/s 759 mmHg 49%
12:00 +16°C° 0 mm 6 m/s 759 mmHg 45%
13:00 +16°C° 0 mm 5 m/s 759 mmHg 45%
14:00 +17°C° 0 mm 5 m/s 758 mmHg 46%
15:00 +19°C° 0 mm 5 m/s 758 mmHg 46%
16:00 +17°C° 0 mm 5 m/s 758 mmHg 51%
17:00 +17°C° 0 mm 4 m/s 758 mmHg 56%
18:00 +15°C° 0 mm 4 m/s 758 mmHg 61%
19:00 +14°C° 0 mm 4 m/s 758 mmHg 66%
20:00 +12°C° 0 mm 4 m/s 758 mmHg 71%
21:00 +11°C° 0 mm 3 m/s 758 mmHg 76%
22:00 +10°C° 0 mm 3 m/s 758 mmHg 78%
23:00 +8°C° 0 mm 4 m/s 758 mmHg 79%

12 Mai, Miercuri

Timp Temperatura Precipitaţii Vânt Presiune Umiditate
00:00 +8°C° 0 mm 4 m/s 758 mmHg 80%
01:00 +8°C° 0 mm 4 m/s 758 mmHg 81%
02:00 +8°C° 0 mm 4 m/s 757 mmHg 81%
03:00 +7°C° 0 mm 4 m/s 757 mmHg 81%
04:00 +9°C° 0 mm 3 m/s 757 mmHg 81%
05:00 +9°C° 0 mm 3 m/s 757 mmHg 80%
06:00 +10°C° 0 mm 3 m/s 757 mmHg 79%
07:00 +11°C° 0 mm 4 m/s 757 mmHg 77%
08:00 +12°C° 0 mm 4 m/s 757 mmHg 75%
09:00 +14°C° 0 mm 4 m/s 757 mmHg 72%
10:00 +15°C° 0 mm 5 m/s 757 mmHg 71%
11:00 +16°C° 0 mm 5 m/s 757 mmHg 70%
12:00 +17°C° 0 mm 5 m/s 757 mmHg 69%
13:00 +17°C° 0 mm 5 m/s 757 mmHg 69%
14:00 +17°C° 0 mm 5 m/s 757 mmHg 69%
15:00 +17°C° 0 mm 5 m/s 756 mmHg 69%
16:00 +17°C° 0 mm 5 m/s 756 mmHg 71%
17:00 +18°C° 0 mm 4 m/s 756 mmHg 73%
18:00 +19°C° 0 mm 4 m/s 756 mmHg 74%
19:00 +18°C° 0 mm 4 m/s 756 mmHg 76%
20:00 +17°C° 0 mm 4 m/s 756 mmHg 78%
21:00 +15°C° 0 mm 4 m/s 756 mmHg 80%
22:00 +14°C° 0 mm 4 m/s 756 mmHg 81%
23:00 +13°C° 0 mm 4 m/s 756 mmHg 83%

13 Mai, Joi

Timp Temperatura Precipitaţii Vânt Presiune Umiditate
00:00 +12°C° 0 mm 4 m/s 756 mmHg 84%
01:00 +12°C° 0 mm 4 m/s 756 mmHg 84%
02:00 +12°C° 0 mm 4 m/s 755 mmHg 83%
03:00 +11°C° 0 mm 4 m/s 755 mmHg 83%
04:00 +12°C° 0.2 mm 4 m/s 755 mmHg 84%
05:00 +12°C° 0.2 mm 4 m/s 755 mmHg 85%
06:00 +12°C° 0.2 mm 4 m/s 755 mmHg 87%
07:00 +12°C° 0 mm 4 m/s 755 mmHg 84%
08:00 +13°C° 0 mm 4 m/s 755 mmHg 82%
09:00 +13°C° 0 mm 4 m/s 755 mmHg 79%
10:00 +13°C° 0 mm 4 m/s 755 mmHg 79%
11:00 +14°C° 0 mm 4 m/s 755 mmHg 80%
12:00 +14°C° 0 mm 4 m/s 755 mmHg 80%
13:00 +14°C° 0.4 mm 4 m/s 755 mmHg 83%
14:00 +14°C° 0.4 mm 4 m/s 755 mmHg 85%
15:00 +13°C° 0.4 mm 4 m/s 755 mmHg 88%
16:00 +14°C° 0 mm 4 m/s 755 mmHg 86%
17:00 +15°C° 0 mm 4 m/s 755 mmHg 85%
18:00 +15°C° 0 mm 4 m/s 754 mmHg 84%
19:00 +15°C° 0 mm 4 m/s 754 mmHg 85%
20:00 +14°C° 0 mm 3 m/s 754 mmHg 87%
21:00 +13°C° 0 mm 3 m/s 754 mmHg 89%
22:00 +13°C° 0 mm 3 m/s 754 mmHg 90%
23:00 +13°C° 0 mm 3 m/s 754 mmHg 91%
Arată mai mult

Formular de consimțământ

Meteoprog și furnizorii noștri de servicii pot stoca și accesa date personale, precum cookies, identificatori de dispozitiv sau alte tehnologii similare pe dispozitivul dumneavoastră și procesa astfel de date pentru a personaliza conținutul și reclamele, dar și pentru a oferi caracteristici de social media și pentru a analiza traficul.

  • Stocarea și/sau accesarea informațiilor pe dispozitivul dumneavoastră

    Cookies, identificatori de dispozitiv sau alte informații pot fi stocate sau accesate pe dispozitiv în scopurile indicate mai sus.

  • Reclame și conținut personalizat, evaluarea reclamelor și a conținutului, informații despre audiențe și dezvoltarea produselor

    Reclamele și conținutul pot fi personalizate pe baza unui profil. Pot fi adăugate date suplimentare pentru a personaliza mai bine reclamele și conținutul. Performanța reclamelor și conținutului poate fi măsurată. Pot fi obținute informații despre utilizatorii care au văzut reclamele și conținutul. Aceste date pot fi utilizate pentru a dezvolta sau îmbunătăți experiența utilizatorilor, sistemele și software-ul.

Dând clic pe ‘Sunt de acord’, permiteți utilizarea cookie-urilor menționate, a identificatorilor de dispozitiv, balizelor web sau altor tehnologii similare. Setările pot fi modificate din browser-ul dispozitivului dumneavoastră.

În anumite scopuri, interesele legitime pot prima asupra consimțământului. Puteți citi mai multe informații în acest sens în Politica privind Confidențialitatea Datelor și Cookie.